Portada
METAR-TAF:

METAR-TAF

Aeroports :

Broken Hill, Austràlia

latitud: 32-00-06S, longitud: 141-28-18E, altitud: 292 m

Observació

L'informe es va fer fa 1 hora i 8 minuts, a les 23:00 UTC
Vent 16 kt del Sud
Temperatura 17°C
Humitat 52%
Pressió 1016 hPa
Visibilitat 10 km o més

METAR: YBHI 212300Z AUTO 17016KT 9999 // NCD 17/07 Q1016

Hora: 10:38 (00:08 UTC)


TAF: manca

Observacions i pronòstics meteorològics de més de 4000 aeroports (METAR i TAF).

Les estacions disponibles són els punts grocs i vermells al mapa.

Posi el ratolí al punt desitjat per veure el nom de l'estació.

Feu clic per veure les observacions i els pronòstics meteorològics.

Per canviar el mapa: feu clic els botons verds amb una creu de color negre per apropar; al botó verd amb un guió per allunyar la imatge; o en les fletxes verdes per a mapes adjacents.


METAR-TAF: